5 day graph

You are here

Error message

  • Notice: Trying to access array offset on value of type int in DrupalRequestSanitizer::stripDangerousValues() (line 102 of /home/twolittl/public_html/cms/includes/request-sanitizer.inc).
  • Notice: Trying to access array offset on value of type int in DrupalRequestSanitizer::stripDangerousValues() (line 102 of /home/twolittl/public_html/cms/includes/request-sanitizer.inc).
  • Notice: Trying to access array offset on value of type int in DrupalRequestSanitizer::stripDangerousValues() (line 102 of /home/twolittl/public_html/cms/includes/request-sanitizer.inc).
  • Notice: Trying to access array offset on value of type int in DrupalRequestSanitizer::stripDangerousValues() (line 102 of /home/twolittl/public_html/cms/includes/request-sanitizer.inc).
  • Notice: Trying to access array offset on value of type int in DrupalRequestSanitizer::stripDangerousValues() (line 102 of /home/twolittl/public_html/cms/includes/request-sanitizer.inc).
  • Notice: Trying to access array offset on value of type int in DrupalRequestSanitizer::stripDangerousValues() (line 102 of /home/twolittl/public_html/cms/includes/request-sanitizer.inc).
  • Notice: Trying to access array offset on value of type int in DrupalRequestSanitizer::stripDangerousValues() (line 102 of /home/twolittl/public_html/cms/includes/request-sanitizer.inc).
  • Notice: Trying to access array offset on value of type int in DrupalRequestSanitizer::stripDangerousValues() (line 102 of /home/twolittl/public_html/cms/includes/request-sanitizer.inc).
  • Deprecated function: Function get_magic_quotes_gpc() is deprecated in phpMyEdit->get_cgi_var() (line 1773 of /home/twolittl/public_html/phpMyEdit.class.php).
  • Deprecated function: implode(): Passing glue string after array is deprecated. Swap the parameters in drupal_get_feeds() (line 394 of /home/twolittl/public_html/cms/includes/common.inc).

Hive Data

Page: 1 of 16645  Records: 998690

Row Date Time Hive Temp Hive Humidity Outside Temp Outside Humidity Bottom Board Temp Outside Wall Temp Electronics Temp Light Levels inHG Fan Heat Cover Notes
Clear Sorted By: Light Levels ascending, Row ascending, Outside Wall Temp ascending, inHG ascending
View 483 May 4 2014 8:48:47pm 82.76 57 52.7 78 78.35 59.9 80.6 0 29.13 0 0 0 NA
View 484 May 4 2014 8:49:48pm 82.94 60 52.7 78 78.35 60.35 80.6 0 29.13 0 0 0 NA
View 485 May 4 2014 8:50:49pm 83.12 56 52.7 78 78.35 60.8 80.6 0 29.13 0 0 0 NA
View 486 May 4 2014 8:51:49pm 83.3 57 52.7 77 78.35 61.25 80.6 0 29.13 0 0 0 NA
View 487 May 4 2014 8:52:51pm 83.66 57 52.7 78 78.35 61.7 80.6 0 29.13 0 0 0 NA
View 488 May 4 2014 8:53:52pm 83.84 56 52.7 77 78.35 62.15 80.6 0 29.13 0 0 0 NA
View 489 May 4 2014 8:54:53pm 84.38 58 52.7 78 78.35 62.15 80.6 0 29.13 0 0 0 NA
View 490 May 4 2014 8:55:55pm 84.56 56 52.7 77 78.35 62.6 80.6 0 29.13 0 0 0 NA
View 491 May 4 2014 8:56:54pm 84.92 55 52.7 78 78.35 63.05 80.6 0 29.13 0 0 0 NA
View 492 May 4 2014 8:57:56pm 85.1 57 52.7 79 78.35 63.05 80.6 0 29.13 0 0 0 NA
View 493 May 4 2014 8:58:57pm 85.46 55 52.7 79 78.35 63.5 80.6 0 29.13 0 0 0 NA
View 494 May 4 2014 8:59:58pm 85.64 54 52.7 79 78.35 63.5 80.6 0 29.13 0 0 0 NA
View 495 May 4 2014 9:01:00pm 85.82 56 52.7 79 78.35 63.95 80.6 0 29.13 0 0 0 NA
View 496 May 4 2014 9:02:00pm 86 56 52.7 79 78.35 63.95 80.6 0 29.13 0 0 0 NA
View 497 May 4 2014 9:03:01pm 86.18 54 52.7 79 78.35 63.95 80.6 0 29.13 0 0 0 NA
View 498 May 4 2014 9:04:02pm 86.36 53 52.7 79 78.35 63.95 80.6 0 29.13 0 0 0 NA
View 499 May 4 2014 9:05:03pm 86.54 54 52.7 79 78.35 64.4 80.6 0 29.14 0 0 0 NA
View 500 May 4 2014 9:06:05pm 86.72 55 52.88 79 78.35 64.4 80.6 0 29.13 0 0 0 NA
View 501 May 4 2014 9:07:06pm 86.72 53 52.88 80 78.35 64.4 80.6 0 29.13 0 0 0 NA
View 502 May 4 2014 9:08:06pm 86.9 53 52.7 80 78.35 64.4 80.6 0 29.14 0 0 0 NA
View 503 May 4 2014 9:09:07pm 87.08 55 52.88 78 78.35 64.4 80.6 0 29.13 0 0 0 NA
View 504 May 4 2014 9:10:09pm 87.26 53 52.7 78 78.35 64.4 80.6 0 29.14 0 0 0 NA
View 505 May 4 2014 9:11:10pm 87.26 50 52.7 78 78.35 64.4 80.6 0 29.14 0 0 0 NA
View 506 May 4 2014 9:12:11pm 87.26 52 52.52 78 78.35 64.4 80.6 0 29.14 0 0 0 NA
View 507 May 4 2014 9:13:11pm 87.26 53 52.7 79 78.35 64.4 80.6 0 29.14 0 0 0 NA
View 508 May 4 2014 9:14:12pm 87.44 54 52.7 79 78.35 64.4 80.6 0 29.14 0 0 0 NA
View 509 May 4 2014 9:15:14pm 87.44 54 52.52 78 78.35 64.4 80.6 0 29.14 0 0 0 NA
View 510 May 4 2014 9:16:15pm 87.62 54 52.52 79 78.35 64.4 80.6 0 29.14 0 0 0 NA
View 511 May 4 2014 9:17:16pm 87.62 56 52.52 78 78.35 64.4 80.6 0 29.14 0 0 0 NA
View 512 May 4 2014 9:18:18pm 87.8 54 52.52 79 78.35 64.85 80.6 0 29.14 0 0 0 NA
View 513 May 4 2014 9:19:17pm 87.98 54 52.52 79 78.35 64.85 80.6 0 29.14 0 0 0 NA
View 514 May 4 2014 9:20:19pm 87.98 59 52.52 80 78.35 64.85 80.6 0 29.14 0 0 0 NA
View 515 May 4 2014 9:21:20pm 88.16 55 52.7 79 78.35 64.85 80.6 0 29.14 0 0 0 NA
View 516 May 4 2014 9:22:21pm 88.16 52 52.7 79 78.35 64.85 80.6 0 29.14 0 0 0 NA
View 517 May 4 2014 9:23:21pm 88.16 54 52.52 80 78.35 64.85 80.6 0 29.14 0 0 0 NA
View 518 May 4 2014 9:24:23pm 88.16 52 52.52 80 78.35 64.85 80.6 0 29.14 0 0 0 NA
View 519 May 4 2014 9:25:24pm 88.16 52 52.52 80 78.35 64.85 80.6 0 29.14 0 0 0 NA
View 520 May 4 2014 9:26:25pm 87.98 49 52.7 80 78.35 64.85 80.6 0 29.14 0 0 0 NA
View 521 May 4 2014 9:27:27pm 87.98 49 52.7 79 78.35 64.85 80.6 0 29.14 0 0 0 NA
View 522 May 4 2014 9:28:28pm 87.98 51 52.7 79 78.35 64.85 80.6 0 29.14 0 0 0 NA
View 523 May 4 2014 9:29:28pm 87.98 50 52.52 79 78.35 64.85 80.6 0 29.14 0 0 0 NA
View 524 May 4 2014 9:30:29pm 87.98 54 52.52 78 78.35 64.85 80.6 0 29.14 0 0 0 NA
View 525 May 4 2014 9:31:30pm 87.98 48 52.52 79 78.35 64.85 80.6 0 29.14 0 0 0 NA
View 526 May 4 2014 9:32:32pm 87.98 52 52.52 79 78.35 64.85 80.6 0 29.14 0 0 0 NA
View 527 May 4 2014 9:33:32pm 87.98 52 52.34 76 78.35 64.85 80.6 0 29.14 0 0 0 NA
View 528 May 4 2014 9:34:33pm 87.98 55 52.34 76 78.35 64.4 80.6 0 29.14 0 0 0 NA
View 529 May 4 2014 9:35:34pm 87.98 55 52.34 78 78.35 64.4 80.6 0 29.14 0 0 0 NA
View 530 May 4 2014 9:36:36pm 87.98 53 52.34 79 78.35 64.4 80.6 0 29.14 0 0 0 NA
View 531 May 4 2014 9:37:37pm 88.16 53 52.34 79 78.35 64.4 80.6 0 29.14 0 0 0 NA
View 532 May 4 2014 9:38:37pm 87.98 49 52.34 79 78.35 64.4 80.6 0 29.14 0 0 0 NA
View 533 May 4 2014 9:39:38pm 87.98 47 52.34 79 78.35 64.4 80.6 0 29.14 0 0 0 NA
View 534 May 4 2014 9:40:39pm 87.98 48 52.34 80 77.9 64.4 80.6 0 29.14 0 0 0 NA
View 535 May 4 2014 9:41:41pm 87.98 49 52.34 79 78.35 64.4 80.6 0 29.14 0 0 0 NA
View 536 May 4 2014 9:42:42pm 87.8 50 52.34 79 78.35 64.4 80.6 0 29.14 0 0 0 NA
View 537 May 4 2014 9:43:42pm 87.98 50 52.16 79 77.9 64.4 80.6 0 29.14 0 0 0 NA
View 538 May 4 2014 9:44:43pm 87.8 52 52.16 79 78.35 64.4 80.6 0 29.14 0 0 0 NA
View 539 May 4 2014 9:45:44pm 87.8 51 52.16 79 78.35 64.4 80.6 0 29.14 0 0 0 NA
View 540 May 4 2014 9:46:46pm 87.8 51 52.16 80 77.9 64.4 80.6 0 29.14 0 0 0 NA
View 541 May 4 2014 9:47:47pm 87.8 53 52.34 80 77.9 64.4 80.6 0 29.14 0 0 0 NA
View 542 May 4 2014 9:48:48pm 87.8 50 52.34 80 77.9 64.4 80.6 0 29.14 0 0 0 NA